Regional Weather Roundup
Issued by NWS

Home | Current Version | Previous Version | Graphics & Text | Print | Product List | Glossary Off
Versions: 1 2 3 4 5 6 7 8 9 10 11 12 13 14 15 16 17 18 19 20 21 22 23 24 25 26 27 28 29 30 31 32 33 34 35 36 37 38 39 40 41 42 43 44 45 46 47 48 49 50

000
ASUS43 KLSX 300310
RWRMO

WEATHER SUMMARY FOR MISSOURI
NATIONAL WEATHER SERVICE SPRINGFIELD MO
1000 PM CDT WED MAR 29 2017

NOTE: "FAIR" INDICATES FEW OR NO CLOUDS BELOW 12,000 FEET WITH NO
       SIGNIFICANT WEATHER AND/OR OBSTRUCTIONS TO VISIBILITY.
       CURRENT SKY AND/OR WEATHER CONDITIONS ARE NOT AVAILABLE FOR
       CHILLICOTHE AND FARMINGTON.

MOZ001>031-035>038-043-044-053-054-300400-
...NORTHERN AND WESTERN MISSOURI...

CITY           SKY/WX    TMP DP  RH WIND       PRES   REMARKS
KANSAS CTY INT LGT RAIN  54  53  97 NE12      29.67R FOG
KANSAS C DTWN  LGT RAIN  56  53  90 N6        29.67R
LEE`S SUMMIT   MOCLDY    55  55 100 E5        29.67R
ST JOSEPH      LGT RAIN  53  52  96 E15       29.68F
CHILLICOTHE      N/A     54  52  93 N12       29.71F
KIRKSVILLE     TSTM      50  50 100 E17G28    29.74F

$$
MOZ066>068-077>081-088>096-101>105-300400-
...SOUTHWEST MISSOURI...

CITY           SKY/WX    TMP DP  RH WIND       PRES   REMARKS
SPRINGFIELD    CLEAR     63  58  83 SE12      29.66R
JOPLIN         MOCLDY    60  53  77 SW12      29.68R

$$
MOZ032>034-039>042-045>050-055>058-069>072-300400-
...CENTRAL MISSOURI...

CITY           SKY/WX    TMP DP  RH WIND       PRES   REMARKS
COLUMBIA       TSTM      60  59  96 SE14      29.70R FOG
JEFFERSON CITY TSTM      64  60  87 SW10G29   29.71R VSB 3/4
ROLLA          LGT RAIN  63  62  97 SE8       29.69F
SEDALIA        CLEAR     59  58  96 E9        29.66R
WHITEMAN AFB   MOCLDY    57  57 100 N9        29.64R
WARRENSBURG    RAIN      55  55 100 NE13      29.63F
OSAGE BEACH    TSTM      63  59  87 S10G21    29.69R

$$
MOZ051-052-059>065-300400-
...EAST CENTRAL MISSOURI...

CITY           SKY/WX    TMP DP  RH WIND       PRES   REMARKS
ST LOUIS INTL  CLOUDY    62  53  72 E16       29.77F
SPIRIT OF STL  CLOUDY    65  56  72 E9        29.74F THUNDER
ST CHARLES     CLOUDY    59  53  80 E17       29.76F

$$
MOZ072>076-082>087-097>100-106>115-300400-
...SOUTH CENTRAL AND SOUTHEAST MISSOURI...

CITY           SKY/WX    TMP DP  RH WIND       PRES   REMARKS
CAPE GIRARDEAU PTCLDY    66  57  72 SE10      29.79S
FARMINGTON     CLOUDY    66  59  78 SE13      29.78S
POPLAR BLUFF   CLOUDY    68  60  75 SE7       29.76F
WEST PLAINS    TSTM      63  60  90 SW21G32   29.74R VSB 3/4

$$




USA.gov is the U.S. government's official web portal to all federal, state and local government web resources and services.